TimeEDT,TemperatureF,Dew PointF,Humidity,Sea Level PressureIn,VisibilityMPH,Wind Direction,Wind SpeedMPH,Gust SpeedMPH,PrecipitationIn,Events,Conditions,WindDirDegrees,DateUTC
12:15 AM,52.9,50.9,93,30.00,7.0,Calm,Calm,-,0.01,,Clear,0,2012-09-30 04:15:00
12:35 AM,51.8,49.8,93,30.00,2.0,Calm,Calm,-,0.01,,Clear,0,2012-09-30 04:35:00
1:15 AM,50.4,48.7,94,29.99,5.0,Calm,Calm,-,0.01,,Clear,0,2012-09-30 05:15:00
2:15 AM,50.7,48.9,94,29.99,5.0,Calm,Calm,-,N/A,,Clear,0,2012-09-30 06:15:00
2:35 AM,50.5,48.6,93,29.99,7.0,East,3.5,-,N/A,,Clear,90,2012-09-30 06:35:00
3:15 AM,48.7,47.3,95,29.98,5.0,Calm,Calm,-,N/A,,Clear,0,2012-09-30 07:15:00
3:35 AM,48.2,46.4,93,29.97,4.0,Calm,Calm,-,N/A,,Clear,0,2012-09-30 07:35:00
3:55 AM,49.1,47.5,94,29.98,4.0,Calm,Calm,-,N/A,,Clear,0,2012-09-30 07:55:00
4:15 AM,48.4,46.8,94,29.97,1.5,Calm,Calm,-,N/A,,Scattered Clouds,0,2012-09-30 08:15:00
4:55 AM,47.3,45.7,94,29.97,2.5,Calm,Calm,-,N/A,,Scattered Clouds,0,2012-09-30 08:55:00
5:15 AM,46.9,45.5,95,29.97,1.0,Calm,Calm,-,N/A,,Overcast,0,2012-09-30 09:15:00
5:35 AM,47.1,45.5,94,29.97,1.2,Calm,Calm,-,N/A,,Overcast,0,2012-09-30 09:35:00
5:55 AM,45.9,44.6,95,29.97,1.0,Calm,Calm,-,N/A,,Overcast,0,2012-09-30 09:55:00
6:15 AM,45.7,44.2,95,29.97,0.5,ESE,4.6,-,N/A,Fog,Fog,120,2012-09-30 10:15:00
6:35 AM,45.0,43.7,95,29.97,0.2,Calm,Calm,-,N/A,Fog,Fog,0,2012-09-30 10:35:00
6:55 AM,45.9,44.4,95,29.97,1.8,Calm,Calm,-,N/A,,Overcast,0,2012-09-30 10:55:00
7:15 AM,46.9,45.5,95,29.97,0.5,East,4.6,-,N/A,Fog,Fog,90,2012-09-30 11:15:00
7:35 AM,47.5,46.4,96,29.97,0.2,Calm,Calm,-,N/A,Fog,Fog,0,2012-09-30 11:35:00
7:55 AM,47.5,46.2,95,29.97,0.2,East,4.6,-,N/A,Fog,Fog,90,2012-09-30 11:55:00
8:15 AM,47.7,46.4,95,29.97,0.2,East,4.6,-,0.01,Fog,Fog,80,2012-09-30 12:15:00
8:35 AM,48.6,47.3,95,29.97,0.2,ESE,5.8,-,0.01,Fog,Fog,110,2012-09-30 12:35:00
8:55 AM,48.9,47.7,95,29.97,0.2,East,4.6,-,0.01,Fog,Fog,100,2012-09-30 12:55:00
9:15 AM,49.8,48.4,95,29.97,4.0,SE,4.6,-,N/A,,Overcast,130,2012-09-30 13:15:00
9:35 AM,51.4,50.2,95,29.97,10.0,SE,4.6,-,N/A,,Mostly Cloudy,130,2012-09-30 13:35:00
9:55 AM,51.4,50.2,95,29.98,7.0,East,3.5,-,N/A,,Mostly Cloudy,100,2012-09-30 13:55:00
10:15 AM,53.1,52.0,96,29.98,10.0,East,3.5,-,N/A,,Scattered Clouds,90,2012-09-30 14:15:00
10:35 AM,55.8,53.4,92,29.98,10.0,Calm,Calm,-,N/A,,Scattered Clouds,0,2012-09-30 14:35:00
10:55 AM,58.3,50.2,74,29.98,10.0,Calm,Calm,-,N/A,,Clear,0,2012-09-30 14:55:00
11:15 AM,59.9,49.1,67,29.97,10.0,Calm,Calm,-,N/A,,Clear,0,2012-09-30 15:15:00
11:35 AM,61.2,48.7,64,29.97,10.0,Calm,Calm,-,N/A,,Clear,0,2012-09-30 15:35:00
11:55 AM,62.1,47.5,59,29.97,10.0,Calm,Calm,-,N/A,,Clear,0,2012-09-30 15:55:00
12:15 PM,63.3,47.5,56,29.97,10.0,Calm,Calm,-,N/A,,Clear,0,2012-09-30 16:15:00
12:35 PM,65.5,40.5,40,29.96,10.0,SW,3.5,-,N/A,,Clear,220,2012-09-30 16:35:00
12:55 PM,65.7,42.6,43,29.96,10.0,WSW,5.8,-,N/A,,Clear,250,2012-09-30 16:55:00
1:15 PM,66.4,43.7,44,29.95,10.0,WNW,4.6,-,N/A,,Clear,300,2012-09-30 17:15:00
1:35 PM,66.6,43.3,43,29.95,10.0,Calm,Calm,-,N/A,,Clear,0,2012-09-30 17:35:00
1:55 PM,67.3,43.5,42,29.93,10.0,WSW,3.5,-,N/A,,Clear,250,2012-09-30 17:55:00
2:15 PM,68.2,43.0,40,29.92,10.0,West,4.6,-,N/A,,Clear,280,2012-09-30 18:15:00
2:35 PM,67.5,43.0,41,29.92,10.0,Calm,Calm,-,N/A,,Clear,0,2012-09-30 18:35:00
2:55 PM,68.0,43.7,41,29.91,10.0,SW,3.5,-,N/A,,Clear,230,2012-09-30 18:55:00
3:15 PM,68.4,45.5,44,29.91,10.0,NNW,3.5,-,N/A,,Clear,340,2012-09-30 19:15:00
3:35 PM,68.9,45.0,42,29.90,10.0,NNE,3.5,-,N/A,,Mostly Cloudy,20,2012-09-30 19:35:00
3:55 PM,67.8,45.3,44,29.90,10.0,Calm,Calm,-,N/A,,Mostly Cloudy,0,2012-09-30 19:55:00
4:15 PM,67.3,43.3,42,29.90,10.0,Calm,Calm,-,N/A,,Scattered Clouds,0,2012-09-30 20:15:00
4:35 PM,68.0,46.0,45,29.89,10.0,WSW,5.8,-,N/A,,Clear,250,2012-09-30 20:35:00
4:55 PM,67.3,44.8,44,29.89,10.0,SW,3.5,-,N/A,,Clear,230,2012-09-30 20:55:00
5:15 PM,67.1,45.3,45,29.90,10.0,SW,4.6,-,N/A,,Scattered Clouds,230,2012-09-30 21:15:00
5:35 PM,66.2,45.5,47,29.89,10.0,SSW,5.8,-,N/A,,Clear,210,2012-09-30 21:35:00
5:55 PM,65.3,46.9,51,29.90,10.0,SW,4.6,-,N/A,,Clear,220,2012-09-30 21:55:00
6:15 PM,64.4,47.8,55,29.90,10.0,WSW,3.5,-,N/A,,Clear,240,2012-09-30 22:15:00
6:55 PM,63.0,48.6,59,29.90,10.0,Calm,Calm,-,N/A,,Clear,0,2012-09-30 22:55:00
7:15 PM,60.8,50.4,68,29.90,10.0,Calm,Calm,-,N/A,,Clear,0,2012-09-30 23:15:00
7:35 PM,59.7,51.3,74,29.90,10.0,Calm,Calm,-,N/A,,Clear,0,2012-09-30 23:35:00
7:55 PM,59.0,51.1,75,29.90,10.0,Calm,Calm,-,N/A,,Clear,0,2012-09-30 23:55:00
8:15 PM,58.5,52.0,79,29.91,10.0,Calm,Calm,-,N/A,,Clear,0,2012-10-01 00:15:00
8:35 PM,57.7,51.8,81,29.91,10.0,Calm,Calm,-,N/A,,Clear,0,2012-10-01 00:35:00
8:55 PM,57.2,52.0,83,29.91,10.0,Calm,Calm,-,N/A,,Clear,0,2012-10-01 00:55:00
9:15 PM,58.1,50.7,76,29.92,10.0,Calm,Calm,-,N/A,,Clear,0,2012-10-01 01:15:00
9:55 PM,57.4,51.1,79,29.92,10.0,Calm,Calm,-,N/A,,Clear,0,2012-10-01 01:55:00
10:15 PM,57.7,50.2,76,29.91,10.0,Calm,Calm,-,N/A,,Clear,0,2012-10-01 02:15:00
10:35 PM,57.2,50.9,79,29.92,10.0,Calm,Calm,-,N/A,,Clear,0,2012-10-01 02:35:00
10:55 PM,56.7,50.5,80,29.92,10.0,Calm,Calm,-,N/A,,Clear,0,2012-10-01 02:55:00
11:15 PM,57.6,48.7,72,29.92,10.0,East,3.5,-,N/A,,Clear,80,2012-10-01 03:15:00
11:35 PM,57.6,48.4,71,29.92,10.0,East,4.6,-,N/A,,Clear,100,2012-10-01 03:35:00
11:55 PM,57.4,49.3,74,29.92,10.0,East,4.6,-,N/A,,Clear,80,2012-10-01 03:55:00